Weather History for Little Rock AFB, AR

Change the Weather History Date:

Sunday, May 4, 2014

  Actual Average Record
Temperature  
Mean Temperature 70 °F -  
Max Temperature 91 °F 75 °F 91 °F (2012)
Min Temperature 48 °F 51 °F 36 °F (1976)
Cooling Degree Days 4    
Growing Degree Days 20 (Base 50)    
Moisture  
Dew Point 49 °F    
Average Humidity 47    
Maximum Humidity 92    
Minimum Humidity 21    
Precipitation  
Precipitation 0.00 in - - ()
Sea Level Pressure  
Sea Level Pressure 29.98 in    
Wind  
Wind Speed 5 mph (SSW)    
Max Wind Speed 16 mph    
Max Gust Speed 23 mph    
Visibility 10 miles    
Events      
Averages and records for this station are not official NWS values.
T = Trace of Precipitation, MM = Missing Value Source: NWS Daily Summary

Daily Weather History Graph

Daily Weather History Graph

Search for Another Location

Airport:

Trip Planner

Search our weather history database for the weather conditions in past years. The results will help you decide how hot, cold, wet, or windy it might be!

Date:

Astronomy

May. 04, 2014 Rise Set
Actual Time 6:14 AM CDT 7:56 PM CDT
Civil Twilight 5:47 AM CDT 8:23 PM CDT
Nautical Twilight 5:14 AM CDT 8:56 PM CDT
Astronomical Twilight 4:40 AM CDT 9:31 PM CDT
Moon 10:40 AM CDT (5/4) 12:00 AM CDT (5/4)
Length of Visible Light 14h 36m
Length of Day
13h 41m
Waxing Crescent, 28% of the Moon is Illuminated
May 4
Waxing Crescent
May 6
First Quarter
May 14
Full
May 21
Last Quarter
May 28
New

Hourly Weather History & Observations

Time (CDT) Temp. Dew Point Humidity Pressure Visibility Wind Dir Wind Speed Gust Speed Precip Events Conditions
12:58 AM 54.5 °F 49.1 °F 82% 30.03 in 10.0 mi Calm Calm - N/A   Clear
1:58 AM 53.2 °F 48.9 °F 85% 30.01 in 10.0 mi Calm Calm - N/A   Clear
2:58 AM 51.6 °F 48.4 °F 89% 30.01 in 10.0 mi Calm Calm - N/A   Clear
3:58 AM 49.8 °F 47.7 °F 92% 30.00 in 10.0 mi Calm Calm - N/A   Clear
4:58 AM 50.0 °F 47.7 °F 92% 30.00 in 10.0 mi Calm Calm - N/A   Clear
5:58 AM 48.2 °F 45.9 °F 92% 30.02 in 8.0 mi ENE 2.3 mph - N/A   Clear
6:58 AM 50.4 °F 47.3 °F 89% 30.04 in 10.0 mi Calm Calm - N/A   Clear
7:58 AM 58.6 °F 52.0 °F 79% 30.04 in 10.0 mi Calm Calm - N/A   Clear
8:58 AM 70.7 °F 51.1 °F 50% 30.04 in 10.0 mi Variable 1.2 mph - N/A   Clear
9:58 AM 78.8 °F 49.5 °F 36% 30.02 in 10.0 mi SW 10.4 mph - N/A   Clear
10:58 AM 83.5 °F 48.6 °F 30% 30.02 in 10.0 mi SW 12.7 mph - N/A   Clear
11:58 AM 87.3 °F 47.5 °F 25% 30.01 in 10.0 mi SSW 16.1 mph 20.7 mph N/A   Clear
12:58 PM 88.9 °F 48.0 °F 24% 29.99 in 10.0 mi SSW 15.0 mph 20.7 mph N/A   Partly Cloudy
1:58 PM 90.3 °F 48.4 °F 24% 29.96 in 10.0 mi SW 15.0 mph - N/A   Clear
2:01 PM 91.4 °F 48.2 °F 23% 29.96 in 10.0 mi SSW 12.7 mph - N/A   Clear
2:34 PM 91.4 °F 48.2 °F 23% 29.96 in 10.0 mi South 12.7 mph - N/A   Clear
2:58 PM 91.0 °F 46.8 °F 22% 29.96 in 10.0 mi SW 13.8 mph 23.0 mph N/A   Clear
3:58 PM 91.8 °F 48.9 °F 23% 29.94 in 10.0 mi South 15.0 mph 21.9 mph N/A   Clear
4:58 PM 91.4 °F 47.7 °F 22% 29.92 in 10.0 mi SSW 12.7 mph 20.7 mph N/A   Clear
5:58 PM 90.7 °F 45.7 °F 21% 29.91 in 10.0 mi SSW 12.7 mph - N/A   Clear
6:58 PM 88.0 °F 49.6 °F 27% 29.91 in 10.0 mi SSW 11.5 mph - N/A   Clear
7:58 PM 84.0 °F 47.7 °F 28% 29.91 in 10.0 mi SSW 8.1 mph - N/A   Clear
8:58 PM 79.7 °F 49.6 °F 35% 29.92 in 10.0 mi SSW 8.1 mph - N/A   Clear
9:58 PM 78.1 °F 50.2 °F 38% 29.93 in 10.0 mi SSW 5.8 mph - N/A   Clear
10:58 PM 77.2 °F 50.5 °F 39% 29.94 in 10.0 mi SSW 11.5 mph - N/A   Clear
11:58 PM 75.9 °F 50.4 °F 41% 29.95 in 10.0 mi SSW 12.7 mph - N/A   Clear